カタログに戻る

CZ-6A DEB

運用中PO
NORAD 61293·DEBRIS·🇨🇳 China

打ち上げ Aug 6, 2024 から Taiyuan Satellite Launch Center

Loading…

次のパス (今後24時間)

TLE

最新Source: Space-Track

元期: Sep 14, 2026, 06:56 UTC

1 61293U 24140TE  26257.28946248  .00003733  00000-0  69719-3 0  9998
2 61293  89.0367 263.1394 0087844 311.2185  48.1479 14.62284813108760

AllMySatでCZ-6A DEBをリアルタイム追跡

Download on the App Store